Voltar ao catálogo

COSMOS 839 DEB

AtivoUNKNOWN
NORAD 10410·DEBRIS·🇷🇺 Russia

Lançado Jul 8, 1976 de Plesetsk Cosmodrome

Loading…

Próximas Passagens (próximas 24 horas)

TLE

AtualizadoSource: Space-Track

Época: Sep 14, 2026, 11:13 UTC

1 10410U 76067D   26257.46767319 -.00000064  00000-0 -34636-4 0  9995
2 10410  66.0896  58.4832 0690081 327.6105  57.1344 12.33015269259205

Acompanhe COSMOS 839 DEB em tempo real com AllMySat

Download on the App Store